| time (UTC) | temp C | wind direction | speed KPH | gust KPH | rain 1hr cm | rain 24hr cm | rain mn cm | humidity % | barometer mb |
| 20260506131532 | 12 | 352 | 11.3 | 27.4 | 0.00 | 0.00 | 0.00 | 76 | 1012.8 |
| 20260506130030 | 13 | 27 | 12.9 | 24.1 | 0.00 | 0.00 | 0.00 | 75 | 1012.9 |
| 20260506124515 | 13 | 355 | 12.9 | 22.5 | 0.00 | 0.00 | 0.00 | 76 | 1012.6 |
| 20260506123022 | 13 | 325 | 9.7 | 24.1 | 0.00 | 0.00 | 0.00 | 76 | 1012.3 |
| 20260506121527 | 13 | 360 | 11.3 | 22.5 | 0.00 | 0.00 | 0.00 | 76 | 1012.1 |
| 20260506120028 | 13 | 331 | 11.3 | 20.9 | 0.00 | 0.00 | 0.00 | 75 | 1012.2 |
| 20260506120018 | 13 | 17 | 11.3 | 20.9 | 0.00 | 0.00 | 0.00 | 75 | 1012.2 |
| 20260506114517 | 13 | 344 | 8.0 | 22.5 | 0.00 | 0.00 | 0.00 | 74 | 1011.8 |
| 20260506113022 | 13 | 350 | 9.7 | 24.1 | 0.00 | 0.00 | 0.00 | 75 | 1011.7 |
| 20260506111503 | 13 | 334 | 6.4 | 19.3 | 0.00 | 0.00 | 0.00 | 76 | 1011.2 |
| 20260506110007 | 13 | 5 | 8.0 | 17.7 | 0.00 | 0.00 | 0.00 | 78 | 1011.1 |
| 20260506104513 | 13 | 355 | 4.8 | 14.5 | 0.00 | 0.00 | 0.00 | 79 | 1010.9 |
| 20260506103025 | 13 | 322 | 9.7 | 20.9 | 0.00 | 0.00 | 0.00 | 79 | 1010.6 |
| 20260506101539 | 13 | 349 | 14.5 | 22.5 | 0.00 | 0.00 | 0.00 | 79 | 1010.5 |
| 20260506100026 | 14 | 346 | 9.7 | 22.5 | 0.00 | 0.00 | 0.00 | 79 | 1010.1 |
| 20260506094514 | 14 | 321 | 12.9 | 20.9 | 0.00 | 0.00 | 0.00 | 79 | 1010.1 |
| 20260506093017 | 15 | 344 | 8.0 | 19.3 | 0.00 | 0.00 | 0.00 | 78 | 1010.0 |
| 20260506091520 | 16 | 330 | 6.4 | 16.1 | 0.00 | 0.00 | 0.00 | 76 | 1009.8 |
| 20260506090026 | 16 | 339 | 6.4 | 14.5 | 0.00 | 0.00 | 0.00 | 75 | 1009.7 |
| 20260506084527 | 16 | 343 | 4.8 | 12.9 | 0.00 | 0.00 | 0.00 | 76 | 1009.4 |
| 20260506083010 | 16 | 355 | 3.2 | 12.9 | 0.00 | 0.00 | 0.00 | 76 | 1009.3 |
| 20260506081515 | 16 | 17 | 3.2 | 12.9 | 0.00 | 0.00 | 0.00 | 76 | 1009.1 |
| 20260506073038 | 17 | 343 | 4.8 | 14.5 | 0.00 | 0.00 | 0.00 | 76 | 1009.3 |
| 20260506071514 | 17 | 5 | 6.4 | 14.5 | 0.00 | 0.00 | 0.00 | 76 | 1009.4 |
| 20260506061528 | 18 | 360 | 8.0 | 14.5 | 0.00 | 0.00 | 0.00 | 76 | 1009.2 |
| 20260506044545 | 21 | 346 | 9.7 | 22.5 | 0.00 | 0.00 | 0.00 | 73 | 1008.9 |
| 20260506043024 | 21 | 334 | 12.9 | 22.5 | 0.00 | 0.00 | 0.00 | 73 | 1008.9 |
| 20260506041504 | 21 | 325 | 8.0 | 19.3 | 0.00 | 0.00 | 0.00 | 72 | 1008.7 |
| 20260506040010 | 21 | 24 | 11.3 | 22.5 | 0.00 | 0.00 | 0.00 | 72 | 1008.5 |
| 20260506034532 | 22 | 351 | 4.8 | 16.1 | 0.00 | 0.00 | 0.00 | 71 | 1008.1 |
| 20260506033020 | 22 | 323 | 8.0 | 19.3 | 0.00 | 0.00 | 0.00 | 71 | 1007.8 |
| 20260506031526 | 22 | 321 | 8.0 | 22.5 | 0.00 | 0.00 | 0.00 | 70 | 1008.0 |
| 20260506030008 | 23 | 325 | 9.7 | 16.1 | 0.00 | 0.00 | 0.00 | 70 | 1007.7 |
| 20260506024509 | 24 | 296 | 6.4 | 14.5 | 0.00 | 0.00 | 0.00 | 73 | 1007.2 |
| 20260506023016 | 25 | 256 | 0.0 | 3.2 | 0.00 | 0.00 | 0.00 | 77 | 1006.5 |
| 20260506021520 | 25 | 256 | 0.0 | 0.0 | 0.00 | 0.00 | 0.00 | 77 | 1005.9 |
| 20260506020024 | 25 | 256 | 0.0 | 4.8 | 0.00 | 0.00 | 0.00 | 77 | 1006.0 |
| 20260506014507 | 25 | 190 | 0.0 | 1.6 | 0.00 | 0.00 | 0.00 | 76 | 1005.7 |
| 20260506013014 | 26 | 179 | 1.6 | 11.3 | 0.00 | 0.00 | 0.00 | 75 | 1005.4 |
| 20260506011518 | 26 | 192 | 11.3 | 19.3 | 0.00 | 0.00 | 0.00 | 76 | 1005.1 |
| 20260506010024 | 26 | 184 | 8.0 | 20.9 | 0.00 | 0.00 | 0.00 | 75 | 1004.9 |
| 20260506004534 | 26 | 158 | 9.7 | 25.7 | 0.00 | 0.00 | 0.00 | 74 | 1005.0 |
| 20260506003010 | 26 | 182 | 8.0 | 25.7 | 0.00 | 0.00 | 0.00 | 75 | 1004.9 |
| 20260506001513 | 26 | 183 | 8.0 | 17.7 | 0.00 | 0.00 | 0.00 | 75 | 1004.8 |
| 20260506000022 | 27 | 157 | 8.0 | 19.3 | 0.00 | 0.00 | 0.00 | 74 | 1004.7 |
| 20260505234533 | 27 | 157 | 9.7 | 22.5 | 0.00 | 0.00 | 0.00 | 74 | 1004.9 |
| 20260505233027 | 27 | 175 | 8.0 | 20.9 | 0.00 | 0.00 | 0.00 | 74 | 1004.8 |
| 20260505231515 | 28 | 225 | 9.7 | 24.1 | 0.00 | 0.00 | 0.00 | 72 | 1004.5 |
| 20260505230013 | 28 | 181 | 14.5 | 24.1 | 0.00 | 0.00 | 0.00 | 71 | 1004.6 |
| 20260505224520 | 28 | 184 | 12.9 | 24.1 | 0.00 | 0.00 | 0.00 | 71 | 1004.3 |
| 20260505223004 | 28 | 182 | 14.5 | 27.4 | 0.00 | 0.00 | 0.00 | 71 | 1004.2 |
| 20260505221507 | 29 | 180 | 14.5 | 24.1 | 0.00 | 0.00 | 0.00 | 69 | 1004.0 |
| 20260505220022 | 29 | 205 | 9.7 | 24.1 | 0.00 | 0.00 | 0.00 | 69 | 1004.3 |
| 20260505214522 | 30 | 150 | 9.7 | 22.5 | 0.00 | 0.00 | 0.00 | 69 | 1004.1 |
| 20260505213021 | 30 | 202 | 11.3 | 22.5 | 0.00 | 0.00 | 0.00 | 68 | 1004.3 |
| 20260505211524 | 30 | 200 | 12.9 | 22.5 | 0.00 | 0.00 | 0.00 | 67 | 1004.5 |
| 20260505210008 | 30 | 196 | 11.3 | 27.4 | 0.00 | 0.00 | 0.00 | 68 | 1004.4 |
| 20260505204514 | 30 | 179 | 12.9 | 27.4 | 0.00 | 0.00 | 0.00 | 67 | 1004.9 |
| 20260505203021 | 30 | 184 | 11.3 | 22.5 | 0.00 | 0.00 | 0.00 | 69 | 1005.0 |
| 20260505201525 | 29 | 168 | 11.3 | 27.4 | 0.00 | 0.00 | 0.00 | 69 | 1005.1 |
| 20260505200027 | 29 | 193 | 14.5 | 27.4 | 0.00 | 0.00 | 0.00 | 67 | 1005.1 |
| 20260505194528 | 28 | 197 | 12.9 | 27.4 | 0.00 | 0.00 | 0.00 | 68 | 1005.3 |
| 20260505193033 | 28 | 195 | 16.1 | 29.0 | 0.00 | 0.00 | 0.00 | 69 | 1005.3 |
| 20260505191520 | 28 | 205 | 14.5 | 30.6 | 0.00 | 0.00 | 0.00 | 69 | 1005.4 |
| 20260505190007 | 28 | 212 | 12.9 | 29.0 | 0.00 | 0.00 | 0.00 | 69 | 1005.5 |
| 20260505184508 | 27 | 150 | 14.5 | 29.0 | 0.00 | 0.00 | 0.00 | 69 | 1005.7 |
| 20260505183014 | 27 | 175 | 16.1 | 29.0 | 0.00 | 0.00 | 0.00 | 70 | 1005.9 |
| 20260505181518 | 27 | 223 | 12.9 | 24.1 | 0.00 | 0.00 | 0.00 | 70 | 1006.0 |
| 20260505180037 | 26 | 211 | 12.9 | 24.1 | 0.00 | 0.00 | 0.00 | 70 | 1006.0 |
| 20260505174515 | 26 | 178 | 16.1 | 37.0 | 0.00 | 0.00 | 0.00 | 71 | 1005.9 |
| 20260505173012 | 26 | 200 | 19.3 | 35.4 | 0.00 | 0.00 | 0.00 | 70 | 1005.8 |
| 20260505171516 | 26 | 178 | 14.5 | 29.0 | 0.00 | 0.00 | 0.00 | 71 | 1005.9 |
| 20260505170026 | 25 | 209 | 22.5 | 38.6 | 0.00 | 0.00 | 0.00 | 71 | 1005.9 |
| 20260505164523 | 25 | 214 | 20.9 | 43.5 | 0.00 | 0.00 | 0.00 | 71 | 1005.7 |
| 20260505163008 | 25 | 213 | 14.5 | 40.2 | 0.00 | 0.00 | 0.00 | 71 | 1005.8 |
| 20260505161512 | 25 | 191 | 17.7 | 38.6 | 0.00 | 0.00 | 0.00 | 71 | 1006.0 |
| 20260505153034 | 23 | 191 | 19.3 | 32.2 | 0.00 | 0.00 | 0.00 | 72 | 1005.9 |
| 20260505151508 | 23 | 177 | 19.3 | 37.0 | 0.00 | 0.00 | 0.00 | 72 | 1006.0 |